Location: Camerons Lookout
(40.9833°S, 175.9333°E)
Time: 05:44:55
(UTC+00:00)

Meteor 2-12 Rocket - Pass Details

Date: 14 January 2026
Orbit: 936 x 956 km, 82.5° (Epoch: 17 February)

Event Time Altitude Azimuth Distance (km) Brightness Sun altitude
Rises 10:58:40 0° 187° (S) 3,658 8.8 -24.6°
Reaches altitude 10° 11:01:12 10° 184° (S) 2,703 7.8 -24.8°
Maximum altitude 11:07:24 74° 99° (E) 993 4.4 -25.2°
Enters shadow 11:08:29 60° 38° (NE) 1,086 4.4 -25.3°
